Nome, AK

6:50 AM AKDT on August 18, 2017 (GMT -0800)
Nome

Weather History for PAOM - June, 2013

Change the Weather History Date:

Saturday, June 8, 2013

  Actual Average Record
Temperature  
Mean Temperature 34 °F 46 °F  
Max Temperature 36 °F 53 °F 76 °F (1940)
Min Temperature 31 °F 38 °F 27 °F (1916)
Degree Days  
Heating Degree Days 31 19  
Month to date heating degree days 195 164  
Since 1 June heating degree days 195 164  
Since 1 July heating degree days 13980 13348  
Cooling Degree Days 0 0  
Month to date cooling degree days 0 0  
Year to date cooling degree days 0 0  
Since 1 June cooling degree days 0 0  
Moisture  
Dew Point 34 °F    
Average Humidity 0    
Maximum Humidity 0    
Minimum Humidity 0    
Precipitation  
Precipitation 0.17 in 0.03 in 0.86 in (1924)
Month to date precipitation 0.27 0.23  
Year to date precipitation 4.52 4.37  
Snow  
Snow 0.00 in 0.00 in 0.50 in (1973)
Month to date snowfall 0.1 0.2  
Since 1 June snowfall 0.1 0.2  
Since 1 July snowfall 65.8 75.6  
Snow Depth 0.00 in    
Sea Level Pressure  
Sea Level Pressure 30.16 in    
Wind  
Wind Speed 8 mph (SSE)    
Max Wind Speed 13 mph    
Max Gust Speed 16 mph    
Visibility 3 miles    
Events Fog , Rain    
T = Trace of Precipitation, MM = Missing Value Source: NWS Daily Summary

Daily Weather History Graph

Daily Weather History Graph

Search for Another Location

Airport or City:

Trip Planner

Search our weather history database for the weather conditions in past years. The results will help you decide how hot, cold, wet, or windy it might be!

Date:

Astronomy

Jun. 08, 2013 Rise Set
Actual Time 4:32 AM AKDT 1:31 AM AKDT
Civil Twilight Sun does not set Sun does not set
Nautical Twilight Sun does not set Sun does not set
Astronomical Twilight Sun does not set Sun does not set
Moon 5:37 AM AKDT (6/8) 12:05 AM AKDT (6/8)
Length of Visible Light 24h 00m
Length of Day
20h 59m
New Moon, 0% of the Moon is Illuminated
Jun 8
New Moon
Jun 16
First Quarter
Jun 23
Full
Jun 29
Last Quarter
Jul 7
New

Hourly Weather History & Observations

Time (AKDT) Temp. Windchill Dew Point Humidity Pressure Visibility Wind Dir Wind Speed Gust Speed Precip Events Conditions
12:53 AM 30.9 °F 27.5 °F 30.9 °F 100% 30.11 in 0.2 mi SSW 3.5 mph - N/A Fog Light Freezing Fog
1:53 AM 30.9 °F - 30.9 °F 100% 30.13 in 0.5 mi Calm Calm - N/A Fog Light Freezing Fog
2:32 AM 30.2 °F - 30.2 °F 100% 30.13 in 0.8 mi Calm Calm - N/A   Overcast
2:53 AM 30.9 °F - 30.9 °F 100% 30.13 in 0.8 mi Calm Calm - N/A   Overcast
3:29 AM 32.0 °F - 32.0 °F 100% 30.13 in 0.5 mi Calm Calm - N/A Fog Fog
3:53 AM 32.0 °F 28.7 °F 30.9 °F 96% 30.13 in 0.5 mi ENE 3.5 mph - N/A Fog Fog
4:48 AM 32.0 °F 27.5 °F 32.0 °F 100% 30.13 in 0.2 mi ENE 4.6 mph - N/A Fog Fog
4:53 AM 32.0 °F 27.5 °F 32.0 °F 100% 30.14 in 0.2 mi East 4.6 mph - N/A Fog Fog
5:37 AM 33.8 °F 29.6 °F 33.8 °F 100% 30.14 in 0.2 mi ESE 4.6 mph - N/A Fog Fog
5:53 AM 33.1 °F 27.7 °F 33.1 °F 100% 30.14 in 0.2 mi East 5.8 mph - N/A Fog Fog
6:28 AM 33.8 °F 29.6 °F 33.8 °F 100% 30.14 in 1.0 mi ESE 4.6 mph - N/A   Mist
6:53 AM 34.0 °F 28.8 °F 34.0 °F 100% 30.14 in 1.5 mi SSE 5.8 mph - N/A   Overcast
7:14 AM 33.8 °F 28.6 °F 33.8 °F 100% 30.13 in 2.0 mi South 5.8 mph - N/A   Overcast
7:32 AM 35.6 °F 30.7 °F 35.6 °F 100% 30.14 in 0.8 mi South 5.8 mph - N/A   Overcast
7:50 AM 33.8 °F 29.6 °F 33.8 °F 100% 30.13 in 1.0 mi South 4.6 mph - N/A   Overcast
7:53 AM 34.0 °F 28.8 °F 34.0 °F 100% 30.14 in 1.0 mi South 5.8 mph - N/A   Overcast
8:07 AM 35.6 °F 29.9 °F 35.6 °F 100% 30.14 in 1.0 mi South 6.9 mph - N/A   Overcast
8:19 AM 35.6 °F 29.9 °F 35.6 °F 100% 30.14 in 0.5 mi South 6.9 mph - N/A Fog Fog
8:32 AM 35.6 °F 29.9 °F 35.6 °F 100% 30.13 in 0.5 mi South 6.9 mph - N/A Fog Fog
8:53 AM 34.0 °F 27.2 °F 34.0 °F 100% 30.14 in 0.8 mi South 8.1 mph - N/A   Mist
9:18 AM 35.6 °F 29.2 °F 35.6 °F 100% 30.14 in 1.0 mi South 8.1 mph - N/A   Overcast
9:32 AM 35.6 °F 28.6 °F 35.6 °F 100% 30.14 in 2.0 mi South 9.2 mph - N/A   Overcast
9:37 AM 35.6 °F 28.6 °F 35.6 °F 100% 30.14 in 3.0 mi South 9.2 mph - N/A   Overcast
9:53 AM 35.1 °F 27.9 °F 35.1 °F 100% 30.15 in 5.0 mi South 9.2 mph - N/A   Overcast
10:14 AM 35.6 °F 29.2 °F 35.6 °F 100% 30.15 in 10.0 mi South 8.1 mph - N/A   Overcast
10:53 AM 35.1 °F 28.6 °F 34.0 °F 96% 30.16 in 10.0 mi South 8.1 mph - N/A   Overcast
11:53 AM 36.0 °F 29.6 °F 36.0 °F 100% 30.17 in 10.0 mi SSE 8.1 mph - 0.00 in Rain Light Rain
12:45 PM 35.6 °F 28.6 °F 35.6 °F 100% 30.17 in 2.0 mi South 9.2 mph - 0.00 in   Overcast
12:53 PM 36.0 °F 29.0 °F 36.0 °F 100% 30.17 in 6.0 mi South 9.2 mph - 0.00 in   Overcast
1:22 PM 35.6 °F 28.6 °F 35.6 °F 100% 30.18 in 1.0 mi South 9.2 mph - N/A   Overcast
1:29 PM 35.6 °F 28.0 °F 35.6 °F 100% 30.18 in 1.0 mi South 10.4 mph - N/A   Overcast
1:53 PM 35.1 °F 28.6 °F 35.1 °F 100% 30.18 in 0.8 mi South 8.1 mph - 0.00 in Rain Light Rain
2:10 PM 35.6 °F 29.2 °F 35.6 °F 100% 30.18 in 2.0 mi South 8.1 mph - 0.00 in   Overcast
2:53 PM 36.0 °F 28.5 °F 36.0 °F 100% 30.18 in 1.0 mi South 10.4 mph - 0.01 in Rain Light Rain
3:18 PM 35.6 °F 28.0 °F 35.6 °F 100% 30.18 in 2.0 mi South 10.4 mph - 0.03 in Rain Light Rain
3:28 PM 35.6 °F 28.6 °F 35.6 °F 100% 30.18 in 3.0 mi South 9.2 mph - 0.05 in Rain Rain
3:53 PM 35.1 °F 27.9 °F 35.1 °F 100% 30.18 in 5.0 mi SSE 9.2 mph - 0.05 in Rain Light Rain
4:32 PM 35.6 °F 28.6 °F 35.6 °F 100% 30.19 in 7.0 mi South 9.2 mph - 0.00 in Rain Light Rain
4:53 PM 36.0 °F 28.5 °F 35.1 °F 97% 30.19 in 6.0 mi South 10.4 mph - 0.00 in   Overcast
5:53 PM 36.0 °F 29.0 °F 35.1 °F 97% 30.19 in 7.0 mi SSE 9.2 mph - 0.01 in Rain Light Rain
6:53 PM 36.0 °F 29.0 °F 35.1 °F 97% 30.19 in 10.0 mi South 9.2 mph - 0.03 in Rain Light Rain
7:53 PM 35.1 °F 27.4 °F 35.1 °F 100% 30.18 in 8.0 mi South 10.4 mph - 0.00 in Rain Light Rain
8:53 PM 35.1 °F 27.4 °F 35.1 °F 100% 30.18 in 10.0 mi South 10.4 mph - 0.02 in   Overcast
9:15 PM 35.6 °F 28.0 °F 35.6 °F 100% 30.17 in 2.0 mi SSE 10.4 mph - 0.00 in   Overcast
9:25 PM 35.6 °F 27.5 °F 35.6 °F 100% 30.18 in 1.0 mi South 11.5 mph - 0.00 in   Overcast
9:31 PM 35.6 °F 28.6 °F 35.6 °F 100% 30.18 in 0.5 mi SSE 9.2 mph - 0.00 in Fog Fog
9:41 PM 35.6 °F 27.5 °F 35.6 °F 100% 30.17 in 1.0 mi SSE 11.5 mph - 0.00 in   Overcast
9:48 PM 35.6 °F 28.6 °F 35.6 °F 100% 30.17 in 3.0 mi South 9.2 mph - 0.00 in   Overcast
9:53 PM 35.1 °F 27.4 °F 35.1 °F 100% 30.17 in 3.0 mi South 10.4 mph - 0.00 in   Overcast
10:00 PM 35.6 °F 27.5 °F 35.6 °F 100% 30.17 in 2.0 mi SSE 11.5 mph - N/A   Overcast
10:12 PM 35.6 °F 27.5 °F 35.6 °F 100% 30.17 in 6.0 mi SSE 11.5 mph - 0.00 in   Light Drizzle
10:19 PM 35.6 °F 27.5 °F 33.8 °F 93% 30.16 in 1.8 mi SSE 11.5 mph - 0.00 in   Light Drizzle
10:24 PM 35.6 °F 27.5 °F 35.6 °F 100% 30.16 in 0.5 mi South 11.5 mph - 0.00 in   Light Drizzle
10:53 PM 34.0 °F 25.5 °F 34.0 °F 100% 30.17 in 0.2 mi South 11.5 mph - 0.00 in   Light Drizzle
11:53 PM 34.0 °F 26.0 °F 34.0 °F 100% 30.18 in 0.2 mi South 10.4 mph - 0.01 in Fog , Rain Light Rain